IQ8KL-13 Weather Reports


time (UTC)temp
F
wind
direction
speed
knots
gust
knots
rain 1hr
in
rain 24hr
in
rain mn
in
humidity
%
barometer
mb
20260906153032 90 0.0 0.0 0.00 0.00 0.00 1017.2
20260906151031 90 0.0 0.0 0.00 0.00 0.00 1016.9
20260906145030 87 0.0 0.0 0.00 0.00 0.00 1017.1
20260906143029 83 0.0 0.0 0.00 0.00 0.00 1017.1
20260906141027 85 0.0 0.0 0.00 0.00 0.00 1017.0
20260906135026 88 0.0 0.0 0.00 0.00 0.00 1016.9
20260906133025 92 0.0 0.0 0.00 0.00 0.00 1017.0
20260906131024 89 0.0 0.0 0.00 0.00 0.00 1017.0
20260906125022 90 0.0 0.0 0.00 0.00 0.00 1017.1
20260906123021 90 0.0 0.0 0.00 0.00 0.00 1017.2
20260906121020 92 0.0 0.0 0.00 0.00 0.00 1017.2
20260906115019 92 0.0 0.0 0.00 0.00 0.00 1017.3
20260906113017 92 0.0 0.0 0.00 0.00 0.00 1017.4
20260906111016 92 0.0 0.0 0.00 0.00 0.00 1017.4
20260906105015 92 0.0 0.0 0.00 0.00 0.00 1017.5
20260906103014 92 0.0 0.0 0.00 0.00 0.00 1017.6
20260906101012 92 0.0 0.0 0.00 0.00 0.00 1017.7
20260906095011 92 0.0 0.0 0.00 0.00 0.00 1017.6
20260906093010 92 0.0 0.0 0.00 0.00 0.00 1017.8
20260906091008 91 0.0 0.0 0.00 0.00 0.00 1017.9
20260906085007 91 0.0 0.0 0.00 0.00 0.00 1017.7
20260906083006 92 0.0 0.0 0.00 0.00 0.00 1017.8
20260906081005 90 0.0 0.0 0.00 0.00 0.00 1017.7
20260906073249 85 0.0 0.0 0.00 0.00 0.00 1017.7
20260906071247 87 0.0 0.0 0.00 0.00 0.00 1017.6
20260906065246 93 0.0 0.0 0.00 0.00 0.00 1017.3
20260906063245 93 0.0 0.0 0.00 0.00 0.00 1017.2
20260906061244 93 0.0 0.0 0.00 0.00 0.00 1017.2
20260906055242 92 0.0 0.0 0.00 0.00 0.00 1017.1
20260906053241 92 0.0 0.0 0.00 0.00 0.00 1016.9
20260906051240 92 0.0 0.0 0.00 0.00 0.00 1016.7
20260906045239 92 0.0 0.0 0.00 0.00 0.00 1016.8
20260906043237 92 0.0 0.0 0.00 0.00 0.00 1016.7
20260906041236 92 0.0 0.0 0.00 0.00 0.00 1016.7
20260906035235 92 0.0 0.0 0.00 0.00 0.00 1016.6
20260906033233 92 0.0 0.0 0.00 0.00 0.00 1016.4
20260906031232 92 0.0 0.0 0.00 0.00 0.00 1016.3
20260906025231 92 0.0 0.0 0.00 0.00 0.00 1016.4
20260906023230 94 0.0 0.0 0.00 0.00 0.00 1016.6
20260906021228 94 0.0 0.0 0.00 0.00 0.00 1016.4
20260906015227 94 0.0 0.0 0.00 0.00 0.00 1016.5
20260906013226 94 0.0 0.0 0.00 0.00 0.00 1016.5
20260906011225 93 0.0 0.0 0.00 0.00 0.00 1016.6
20260906005223 93 0.0 0.0 0.00 0.00 0.00 1016.5
20260906003222 92 0.0 0.0 0.00 0.00 0.00 1016.5
20260906001221 91 0.0 0.0 0.00 0.00 0.00 1016.7
20260905235219 87 0.0 0.0 0.00 0.00 0.00 1016.7
20260905233218 84 0.0 0.0 0.00 0.00 0.00 1017.0
20260905231217 85 0.0 0.0 0.00 0.00 0.00 1017.1
20260905225216 85 0.0 0.0 0.00 0.00 0.00 1017.1
20260905223215 85 0.0 0.0 0.00 0.00 0.00 1017.2
20260905223111 85 0.0 0.0 0.00 0.00 0.00 1017.2
20260905221801 89 0.0 0.0 0.00 0.00 0.00 1017.1
20260905220059 94 0.0 0.0 0.00 0.00 0.00 1017.2
20260905214055 94 0.0 0.0 0.00 0.00 0.00 1017.3
20260905212051 94 0.0 0.0 0.00 0.00 0.00 1017.3
20260905210047 94 0.0 0.0 0.00 0.00 0.00 1017.4
20260905204043 94 0.0 0.0 0.00 0.00 0.00 1017.4
20260905202039 94 0.0 0.0 0.00 0.00 0.00 1017.4
20260905200035 94 0.0 0.0 0.00 0.00 0.00 1017.4
20260905194031 94 0.0 0.0 0.00 0.00 0.00 1017.3
20260905192027 94 0.0 0.0 0.00 0.00 0.00 1017.3
20260905190023 94 0.0 0.0 0.00 0.00 0.00 1017.1
20260905184018 92 0.0 0.0 0.00 0.00 0.00 1016.9
20260905182016 91 0.0 0.0 0.00 0.00 0.00 1016.8
20260905180015 91 0.0 0.0 0.00 0.00 0.00 1016.7
20260905174014 89 0.0 0.0 0.00 0.00 0.00 1016.6
20260905172012 84 0.0 0.0 0.00 0.00 0.00 1016.5
20260905171554 84 0.0 0.0 0.00 0.00 0.00 1016.5
20260905170815 85 0.0 0.0 0.00 0.00 0.00 1016.5
20260905164814 95 0.0 0.0 0.00 0.00 0.00 1016.3
20260905164101 96 0.0 0.0 0.00 0.00 0.00 1016.2
20260905162100 96 0.0 0.0 0.00 0.00 0.00 1016.3
20260905160058 96 0.0 0.0 0.00 0.00 0.00 1016.3